Flag for Germany Weather past 2 weeks in Celle, Lower Saxony, Germany

Now
54 °F

Fog.


Feels Like: 54 °F
Forecast: 52 / 70 °F
Wind: No wind

Location: Celle Airport

Current Time: Oct 2, 2014 at 8:17:58 AM

Latest Report: Oct 2, 2014 at 7:20 AM


Visibility: 1 mi

Pressure: 30.36 "Hg

Humidity: 100%

Dew point: 54 °F

Location of CelleLocation

Historic Weather in Celle — Graph

°F

Celle temperature yesterday

Maximum temperature yesterday: 68 °F (at 3:20 PM)
Minimum temperature yesterday: 48 °F (at 4:20 AM)
Average temperature yesterday: 58 °F

Past Weeks' High & Low Weather Summary

 TemperatureHumidityPressure
High75 °F (Sep 17, 3:20 PM)100% (Sep 18, 7:20 AM)30.39 "Hg (Sep 18, 7:20 AM)
Low41 °F (Sep 23, 7:20 AM)45% (Sep 22, 2:20 PM)29.80 "Hg (Sep 24, 5:20 PM)
Average59 °F82%30.08 "Hg
* Reported Sep 17 6:20 AM — Oct 2 6:20 AM, Celle, Weather by CustomWeather, © 2014

Note: Actual official high and low records may vary slightly from our data, if they occured in-between our weather recording intervals... More about our weather records

Advertising

Celle weather history for previous 24 hours

 ConditionsComfort  
Time TempWeatherWind HumidityBarometerVisibility
6:20 AM
Oct 2
52 °FFog.1 mph100%30.36 "Hg1 mi
5:20 AM54 °FFog.No wind94%30.36 "Hg1 mi
4:20 AM54 °FFog.No wind94%30.36 "Hg1 mi
3:20 AM54 °FFog.1 mph94%30.36 "Hg2 mi
2:20 AM52 °FFog.1 mph100%30.36 "Hg2 mi
1:20 AM52 °FFog.1 mph100%30.36 "Hg4 mi
12:20 AM54 °FFog.1 mph100%30.36 "Hg4 mi
11:20 PM
Oct 1
54 °FFog.No wind100%30.33 "Hg4 mi
10:20 PM55 °FFog.1 mph100%30.33 "Hg4 mi
9:20 PM57 °FFog.1 mph94%30.33 "Hg4 mi
8:20 PM57 °FFog.1 mph100%30.33 "Hg4 mi
7:20 PM61 °FFog.1 mph88%30.30 "Hg4 mi
6:20 PM66 °FScattered clouds.2 mph78%30.30 "HgN/A
5:20 PM68 °FPassing clouds.2 mph64%30.30 "HgN/A
4:20 PM68 °FPassing clouds.3 mph69%30.30 "Hg6 mi
4:03 PM68 °FPassing clouds.3 mph69%30.30 "Hg5 mi
3:20 PM68 °FPartly sunny.3 mph69%30.30 "Hg4 mi
2:49 PM66 °FPartly sunny.5 mph73%30.30 "Hg5 mi
2:20 PM66 °FPartly sunny.6 mph73%30.30 "Hg4 mi
1:20 PM66 °FPartly sunny.6 mph73%30.33 "Hg3 mi
12:20 PM64 °FFog.6 mph83%30.33 "Hg3 mi
11:20 AM59 °FFog.2 mph94%30.33 "Hg2 mi
10:20 AM57 °FFog.2 mph94%30.30 "Hg2 mi
9:20 AM54 °FFog.1 mph100%30.30 "Hg1 mi
8:45 AM52 °FFog.2 mph94%30.30 "Hg1 mi
8:20 AM50 °FFog.1 mph100%30.30 "Hg1 mi
Weather by CustomWeather, © 2014

See weather overviewHow to use our weather pages